Regional Weather Roundup
Issued by NWS

Home | Current Version | Previous Version | Text Only | Print | Product List | Glossary On
Versions: 1 2 3 4 5 6 7 8 9 10 11 12 13 14 15 16 17 18 19 20 21 22 23 24 25 26 27 28 29 30 31 32 33 34 35 36 37 38 39 40 41 42 43 44 45 46 47 48 49 50
880
ASUS44 KJAN 221710
RWRMS

MISSISSIPPI HOURLY WEATHER ROUNDUP
NATIONAL WEATHER SERVICE JACKSON MS
1200 PM CDT FRI AUG 22 2014

NOTE: "FAIR: INDICATES FEW OR NO CLOUDS BELOW 12,000 FEET WITH NO
SIGNIFICANT WEATHER AND/OR OBSTRUCTIONS TO VISIBILITY.

MSZ001>002-007>008-010>013-018>021-025>028-034>036-221800-
NORTHWEST MISSISSIPPI

CITY           SKY/WX    TMP DP  RH WIND       PRES   REMARKS
CLARKSDALE     FAIR      90  77  66 CALM      30.10F HX 102
CLEVELAND      FAIR      88  75  65 W5        30.10S HX  98
GREENWOOD      SUNNY     88  73  61 S3        30.11F HX  95
GREENVILLE     SUNNY     89  71  55 W6        30.10S HX  95
GRENADA        FAIR      88  73  62 NW7       30.10F HX  96
OXFORD         FAIR      86  73  66 W6        30.12F HX  93
TUNICA         MOSUNNY   90  73  58 S9        30.08F HX  98
$$

MSZ003>006-009-014>017-022>024-029>033-037>039-221800-
NORTHEAST MISSISSIPPI

CITY           SKY/WX    TMP DP  RH WIND       PRES   REMARKS
COLUMBUS AFB   SUNNY     91  73  55 W3        30.10F HX  98
CORINTH        FAIR      90  73  58 SW7       30.09F HX  98
GOLDN TRIANGLE MOSUNNY   93  73  52 W5        30.12F HX 102
STARKVILLE     FAIR      90  70  51 N5        30.10F HX  95
TUPELO         SUNNY     93  72  50 W5        30.09F HX 101
$$

MSZ040-058-221800-
CENTRAL MISSISSIPPI

CITY           SKY/WX    TMP DP  RH WIND       PRES   REMARKS
JACKSON INTL   MOSUNNY   90  72  55 SW7       30.13F HX  97
JACKSON HAWKNS SUNNY     90  72  55 CALM      30.13F HX  97
MERIDIAN KEY   SUNNY     92  71  50 N6        30.12F HX  98
MERIDIAN NAS   MOSUNNY   91  70  49 VRB3      30.12F HX  96
RAYMOND        FAIR      88  82  84 CALM      30.12F HX 108
VICKSBURG      SUNNY     88  73  61 S5        30.12S HX  95
$$

MSZ059>079-221800-
SOUTH MISSISSIPPI

CITY           SKY/WX    TMP DP  RH WIND       PRES   REMARKS
BROOKHAVEN     FAIR      88  75  66 CALM      30.16S HX  97
COLUMBIA       FAIR      90  73  58 MISG      30.12S HX  98
HATTIESBURG    SUNNY     91  74  57 NW6       30.13F HX 100
MCCOMB         MOSUNNY   89  71  55 VRB5      30.13F HX  95
NATCHEZ        MOSUNNY   88  75  66 S3        30.13F HX  97
PINE BELT      MOSUNNY   90  73  58 N6        30.15S HX  98
$$

MSZ080>082-221800-
COASTAL MISSISSIPPI

CITY           SKY/WX    TMP DP  RH WIND       PRES   REMARKS
BAY ST LOUIS   MOSUNNY  N/A N/A N/A VRB5      30.12S
BILOXI         MOSUNNY   94  73  51 VRB3      30.11S HX 103
PASCAGOULA     SUNNY     93  73  52 N8        30.10F HX 102
GULFPORT       MOSUNNY   94  73  50 NE6       30.10F HX 103
$$



USA.gov is the U.S. government's official web portal to all federal, state and local government web resources and services.